UKV46L EGKK-LDDU

Flight info

Callsign UKV46L
Flight time 2h 16m
Altitude 35000
Route DVR L9 KONAN DCT KOK DCT KOMOB DCT KRH DCT UTABA DCT BEMKI DCT ELMEM DCT DIRAB DCT PEVAL DCT SPL DCT SIPAL
Aircraft A320/M-SDE3FGHIRWY/LB1

Departure

Time 2026-05-05 10:28
Airport London Gatwick Airport (EGKK)

Arrival

Time 2026-05-05 12:44
Airport Dubrovnik Ruđer Bošković Airport (LDDU)
Time Latitude Longitude Altitude Speed Heading
2026-05-05 09:41 51.15591 -0.17621 213 ft 0 kts 347°
2026-05-05 10:11 51.15574 -0.17614 215 ft 4 kts 342°
2026-05-05 10:12 51.15550 -0.17598 204 ft 4 kts 324°
2026-05-05 10:12 51.15533 -0.17569 204 ft 4 kts 279°
2026-05-05 10:12 51.15533 -0.17550 205 ft 1 kts 257°
2026-05-05 10:12 51.15533 -0.17548 204 ft 0 kts 257°
2026-05-05 10:15 51.15533 -0.17547 204 ft 0 kts 257°
2026-05-05 10:17 51.15533 -0.17549 204 ft 0 kts 257°
2026-05-05 10:18 51.15529 -0.17578 204 ft 6 kts 257°
2026-05-05 10:18 51.15520 -0.17644 210 ft 7 kts 257°
2026-05-05 10:18 51.15509 -0.17719 204 ft 7 kts 258°
2026-05-05 10:18 51.15497 -0.17810 204 ft 13 kts 257°
2026-05-05 10:19 51.15475 -0.17965 215 ft 15 kts 258°
2026-05-05 10:19 51.15461 -0.18072 212 ft 15 kts 257°
2026-05-05 10:19 51.15440 -0.18218 207 ft 12 kts 257°
2026-05-05 10:19 51.15381 -0.18272 210 ft 10 kts 175°
2026-05-05 10:20 51.15313 -0.18250 211 ft 10 kts 168°
2026-05-05 10:20 51.15248 -0.18228 213 ft 9 kts 167°
2026-05-05 10:20 51.15194 -0.18252 208 ft 9 kts 233°
2026-05-05 10:20 51.15183 -0.18351 211 ft 12 kts 259°
2026-05-05 10:21 51.15158 -0.18532 209 ft 16 kts 258°
2026-05-05 10:21 51.15129 -0.18731 213 ft 21 kts 256°
2026-05-05 10:21 51.15106 -0.18911 205 ft 16 kts 258°
2026-05-05 10:21 51.15083 -0.19076 215 ft 15 kts 257°
2026-05-05 10:22 51.15061 -0.19234 204 ft 14 kts 258°
2026-05-05 10:22 51.15040 -0.19389 214 ft 14 kts 257°
2026-05-05 10:22 51.15019 -0.19541 204 ft 14 kts 257°
2026-05-05 10:22 51.14996 -0.19695 213 ft 14 kts 258°
2026-05-05 10:23 51.14977 -0.19844 204 ft 14 kts 258°
2026-05-05 10:23 51.14956 -0.19997 215 ft 15 kts 257°
2026-05-05 10:23 51.14932 -0.20161 210 ft 15 kts 257°
2026-05-05 10:23 51.14908 -0.20331 205 ft 16 kts 259°
2026-05-05 10:24 51.14885 -0.20511 208 ft 17 kts 257°
2026-05-05 10:24 51.14859 -0.20698 206 ft 18 kts 257°
2026-05-05 10:24 51.14834 -0.20880 208 ft 15 kts 258°
2026-05-05 10:24 51.14812 -0.21038 215 ft 15 kts 258°
2026-05-05 10:25 51.14784 -0.21189 211 ft 14 kts 251°
2026-05-05 10:25 51.14764 -0.21325 204 ft 11 kts 258°
2026-05-05 10:25 51.14717 -0.21400 209 ft 11 kts 182°
2026-05-05 10:25 51.14654 -0.21353 213 ft 10 kts 144°
2026-05-05 10:26 51.14629 -0.21334 204 ft 0 kts 158°
2026-05-05 10:26 51.14621 -0.21329 211 ft 6 kts 160°
2026-05-05 10:26 51.14531 -0.21258 202 ft 19 kts 134°
2026-05-05 10:27 51.14524 -0.21142 208 ft 6 kts 83°
2026-05-05 10:27 51.14525 -0.21130 203 ft 0 kts 78°
2026-05-05 10:27 51.14530 -0.21094 208 ft 21 kts 78°
2026-05-05 10:27 51.14618 -0.20457 208 ft 93 kts 77°
2026-05-05 10:28 51.14798 -0.19154 210 ft 145 kts 77°
2026-05-05 10:28 51.15021 -0.17498 695 ft 151 kts 74°
2026-05-05 10:28 51.15235 -0.15844 1421 ft 153 kts 74°
2026-05-05 10:28 51.15452 -0.14187 2113 ft 157 kts 73°
2026-05-05 10:29 51.15696 -0.12369 2523 ft 179 kts 74°
2026-05-05 10:29 51.15974 -0.10305 2863 ft 202 kts 75°
2026-05-05 10:29 51.16277 -0.08029 3373 ft 220 kts 75°
2026-05-05 10:29 51.16607 -0.05535 3904 ft 239 kts 76°
2026-05-05 10:30 51.16957 -0.02861 4380 ft 251 kts 77°
2026-05-05 10:30 51.17316 -0.00115 4857 ft 254 kts 78°
2026-05-05 10:30 51.17677 0.02654 5382 ft 258 kts 77°
2026-05-05 10:30 51.18044 0.05469 5929 ft 261 kts 76°
2026-05-05 10:31 51.18322 0.08353 6524 ft 268 kts 89°
2026-05-05 10:31 51.18184 0.11340 7079 ft 273 kts 95°
2026-05-05 10:31 51.18001 0.14365 7639 ft 276 kts 94°
2026-05-05 10:31 51.17814 0.17426 8213 ft 278 kts 94°
2026-05-05 10:32 51.17625 0.20510 8793 ft 280 kts 95°
2026-05-05 10:32 51.17431 0.23618 9389 ft 283 kts 95°
2026-05-05 10:32 51.17235 0.26763 9959 ft 287 kts 95°
2026-05-05 10:32 51.17040 0.29952 10415 ft 294 kts 95°
2026-05-05 10:33 51.16882 0.33306 10803 ft 313 kts 90°
2026-05-05 10:33 51.16878 0.36867 11181 ft 331 kts 89°
2026-05-05 10:33 51.16869 0.40606 11558 ft 343 kts 89°
2026-05-05 10:33 51.16860 0.44431 11997 ft 347 kts 90°
2026-05-05 10:34 51.16853 0.48289 12510 ft 350 kts 90°
2026-05-05 10:34 51.16845 0.52194 13204 ft 354 kts 89°
2026-05-05 10:34 51.16835 0.56128 13956 ft 356 kts 90°
2026-05-05 10:34 51.16821 0.60100 14574 ft 360 kts 90°
2026-05-05 10:35 51.16801 0.64107 15190 ft 363 kts 90°
2026-05-05 10:35 51.16780 0.68141 15816 ft 366 kts 90°
2026-05-05 10:35 51.16757 0.72162 16400 ft 370 kts 91°
2026-05-05 10:35 51.16732 0.76282 16986 ft 373 kts 91°
2026-05-05 10:36 51.16706 0.80430 17583 ft 376 kts 91°
2026-05-05 10:36 51.16678 0.84616 18149 ft 380 kts 91°
2026-05-05 10:36 51.16650 0.88850 18666 ft 383 kts 92°
2026-05-05 10:36 51.16623 0.93107 19168 ft 385 kts 91°
2026-05-05 10:37 51.16595 0.97394 19613 ft 389 kts 92°
2026-05-05 10:37 51.16565 1.01720 20103 ft 392 kts 92°
2026-05-05 10:37 51.16532 1.06071 20599 ft 395 kts 92°
2026-05-05 10:37 51.16497 1.10463 21072 ft 398 kts 93°
2026-05-05 10:38 51.16461 1.14887 21557 ft 401 kts 93°
2026-05-05 10:38 51.16423 1.19335 22024 ft 403 kts 92°
2026-05-05 10:38 51.16384 1.23821 22486 ft 406 kts 94°
2026-05-05 10:38 51.16343 1.28336 22950 ft 409 kts 92°
2026-05-05 10:39 51.16298 1.32878 23387 ft 412 kts 93°
2026-05-05 10:39 51.16234 1.37458 23781 ft 414 kts 94°
2026-05-05 10:39 51.16086 1.42055 24153 ft 417 kts 97°
2026-05-05 10:39 51.15867 1.46675 24519 ft 419 kts 97°
2026-05-05 10:40 51.15610 1.51311 24880 ft 421 kts 97°
2026-05-05 10:40 51.15343 1.55965 25230 ft 423 kts 96°
2026-05-05 10:40 51.15082 1.60653 25572 ft 426 kts 98°
2026-05-05 10:40 51.14833 1.65366 25906 ft 429 kts 96°
2026-05-05 10:41 51.14592 1.70108 26234 ft 431 kts 96°
2026-05-05 10:41 51.14354 1.74886 26562 ft 433 kts 97°
2026-05-05 10:41 51.14114 1.79683 26884 ft 436 kts 97°
2026-05-05 10:41 51.13867 1.84502 27204 ft 438 kts 97°
2026-05-05 10:42 51.13367 1.94238 27795 ft 444 kts 97°
2026-05-05 10:42 51.13113 1.99163 28099 ft 447 kts 97°
2026-05-05 10:42 51.12855 2.04113 28398 ft 449 kts 97°
2026-05-05 10:43 51.12592 2.09082 28689 ft 452 kts 97°
2026-05-05 10:43 51.12325 2.14069 28981 ft 454 kts 97°
2026-05-05 10:43 51.12052 2.19086 29263 ft 456 kts 97°
2026-05-05 10:43 51.11777 2.24127 29549 ft 458 kts 97°
2026-05-05 10:44 51.11501 2.29185 29830 ft 460 kts 97°
2026-05-05 10:44 51.11223 2.34267 30087 ft 462 kts 97°
2026-05-05 10:44 51.10942 2.39360 30363 ft 463 kts 97°
2026-05-05 10:44 51.10663 2.44402 30617 ft 464 kts 97°
2026-05-05 10:45 51.10377 2.49514 30910 ft 464 kts 97°
2026-05-05 10:45 51.10086 2.54628 31222 ft 464 kts 98°
2026-05-05 10:45 51.09775 2.59733 31539 ft 463 kts 100°
2026-05-05 10:45 51.09122 2.64718 31854 ft 459 kts 109°
2026-05-05 10:46 51.08017 2.69461 32173 ft 455 kts 118°
2026-05-05 10:46 51.06579 2.73917 32500 ft 453 kts 121°
2026-05-05 10:46 51.05105 2.78346 32828 ft 453 kts 121°
2026-05-05 10:46 51.03632 2.82760 33160 ft 452 kts 121°
2026-05-05 10:47 51.02174 2.87124 33496 ft 451 kts 121°
2026-05-05 10:47 51.00708 2.91513 33860 ft 450 kts 122°
2026-05-05 10:47 50.99241 2.95901 34155 ft 449 kts 122°
2026-05-05 10:47 50.97773 3.00276 34437 ft 449 kts 122°
2026-05-05 10:48 50.96305 3.04643 34686 ft 449 kts 122°
2026-05-05 10:48 50.94833 3.09022 34878 ft 450 kts 121°
2026-05-05 10:48 50.93361 3.13396 34929 ft 450 kts 122°
2026-05-05 10:49 50.90411 3.22153 34912 ft 450 kts 122°
2026-05-05 10:49 50.87465 3.30837 34914 ft 450 kts 122°
2026-05-05 10:50 50.84504 3.39525 34923 ft 448 kts 122°
2026-05-05 10:50 50.81538 3.48203 34920 ft 447 kts 122°
2026-05-05 10:51 50.78581 3.56842 34917 ft 447 kts 122°
2026-05-05 10:51 50.75609 3.65487 34906 ft 447 kts 122°
2026-05-05 10:52 50.72640 3.74099 34891 ft 447 kts 122°
2026-05-05 10:52 50.69662 3.82692 34907 ft 445 kts 123°
2026-05-05 10:53 50.66689 3.91240 34911 ft 444 kts 123°
2026-05-05 10:53 50.63723 3.99760 34914 ft 443 kts 123°
2026-05-05 10:54 50.60774 4.08214 34907 ft 443 kts 123°
2026-05-05 10:54 50.57800 4.16701 34906 ft 443 kts 123°
2026-05-05 10:55 50.54813 4.25174 34920 ft 442 kts 123°
2026-05-05 10:55 50.51831 4.33629 34928 ft 443 kts 123°
2026-05-05 10:56 50.48839 4.42081 34928 ft 442 kts 123°
2026-05-05 10:56 50.45859 4.50471 34928 ft 442 kts 123°
2026-05-05 10:57 50.42853 4.58881 34929 ft 442 kts 124°
2026-05-05 10:57 50.39839 4.67285 34920 ft 441 kts 124°
2026-05-05 10:58 50.36838 4.75655 34912 ft 440 kts 124°
2026-05-05 10:58 50.33833 4.84026 34907 ft 440 kts 124°
2026-05-05 10:59 50.30846 4.92301 34908 ft 439 kts 124°
2026-05-05 10:59 50.27836 5.00588 34906 ft 437 kts 124°
2026-05-05 11:00 50.24830 5.08838 34892 ft 436 kts 124°
2026-05-05 11:00 50.21823 5.17079 34896 ft 436 kts 124°
2026-05-05 11:01 50.18818 5.25297 34896 ft 435 kts 124°
2026-05-05 11:01 50.15831 5.33447 34884 ft 435 kts 125°
2026-05-05 11:02 50.12848 5.41653 34883 ft 435 kts 123°
2026-05-05 11:02 50.10031 5.50014 34853 ft 436 kts 122°
2026-05-05 11:03 50.07257 5.58423 34843 ft 437 kts 123°
2026-05-05 11:03 50.04434 5.66809 34840 ft 437 kts 123°
2026-05-05 11:04 50.01586 5.75153 34847 ft 437 kts 123°
2026-05-05 11:04 49.99210 5.82071 34850 ft 436 kts 123°
2026-05-05 11:05 49.96356 5.90383 34846 ft 436 kts 123°
2026-05-05 11:05 49.93025 6.00048 34832 ft 436 kts 123°
2026-05-05 11:06 49.90623 6.06991 34839 ft 436 kts 123°
2026-05-05 11:06 49.87747 6.15290 34837 ft 436 kts 123°
2026-05-05 11:07 49.84892 6.23517 34845 ft 436 kts 123°
2026-05-05 11:07 49.82014 6.31800 34846 ft 437 kts 123°
2026-05-05 11:08 49.79120 6.40074 34840 ft 437 kts 124°
2026-05-05 11:08 49.76219 6.48330 34849 ft 436 kts 124°
2026-05-05 11:09 49.73315 6.56574 34844 ft 436 kts 124°
2026-05-05 11:09 49.70421 6.64754 34849 ft 435 kts 124°
2026-05-05 11:10 49.67515 6.72954 34855 ft 435 kts 124°
2026-05-05 11:10 49.64611 6.81145 34835 ft 435 kts 124°
2026-05-05 11:11 49.61702 6.89315 34843 ft 434 kts 124°
2026-05-05 11:11 49.58786 6.97474 34846 ft 434 kts 124°
2026-05-05 11:12 49.55884 7.05573 34858 ft 434 kts 124°
2026-05-05 11:12 49.52954 7.13704 34862 ft 434 kts 125°
2026-05-05 11:13 49.50017 7.21819 34859 ft 434 kts 125°
2026-05-05 11:13 49.47082 7.29912 34875 ft 433 kts 125°
2026-05-05 11:14 49.44148 7.37998 34873 ft 432 kts 125°
2026-05-05 11:14 49.41207 7.46054 34873 ft 432 kts 125°
2026-05-05 11:15 49.38260 7.54093 34856 ft 432 kts 125°
2026-05-05 11:15 49.35333 7.62083 34836 ft 432 kts 125°
2026-05-05 11:16 49.32382 7.70124 34840 ft 433 kts 125°
2026-05-05 11:16 49.29418 7.78157 34843 ft 433 kts 125°
2026-05-05 11:17 49.26439 7.86198 34843 ft 434 kts 125°
2026-05-05 11:17 49.23459 7.94213 34863 ft 433 kts 125°
2026-05-05 11:18 49.20492 8.02198 34854 ft 431 kts 126°
2026-05-05 11:18 49.17539 8.10121 34853 ft 431 kts 126°
2026-05-05 11:19 49.14551 8.18088 34849 ft 431 kts 126°
2026-05-05 11:19 49.11564 8.26033 34848 ft 431 kts 126°
2026-05-05 11:20 49.08573 8.33977 34849 ft 432 kts 126°
2026-05-05 11:20 49.05572 8.41912 34849 ft 431 kts 126°
2026-05-05 11:21 49.02580 8.49780 34847 ft 432 kts 126°
2026-05-05 11:21 48.99388 8.57476 34848 ft 425 kts 135°
2026-05-05 11:22 48.95120 8.63500 34858 ft 416 kts 146°
2026-05-05 11:22 48.90570 8.68961 34865 ft 416 kts 146°
2026-05-05 11:23 48.86057 8.74395 34867 ft 416 kts 146°
2026-05-05 11:23 48.81520 8.79862 34842 ft 416 kts 146°
2026-05-05 11:24 48.76980 8.85321 34845 ft 417 kts 146°
2026-05-05 11:24 48.72447 8.90742 34850 ft 417 kts 146°
2026-05-05 11:25 48.67887 8.96171 34859 ft 417 kts 146°
2026-05-05 11:25 48.63332 9.01590 34860 ft 416 kts 146°
2026-05-05 11:26 48.58773 9.07014 34861 ft 416 kts 146°
2026-05-05 11:26 48.54210 9.12425 35031 ft 418 kts 146°
2026-05-05 11:26 48.51917 9.15132 35243 ft 420 kts 146°
2026-05-05 11:27 48.49610 9.17854 35468 ft 421 kts 146°
2026-05-05 11:27 48.47305 9.20574 35691 ft 421 kts 146°
2026-05-05 11:27 48.44992 9.23303 35881 ft 422 kts 146°
2026-05-05 11:27 48.42673 9.26039 36074 ft 423 kts 146°
2026-05-05 11:28 48.40382 9.28738 36267 ft 424 kts 146°
2026-05-05 11:28 48.38054 9.31471 36492 ft 425 kts 146°
2026-05-05 11:28 48.35724 9.34204 36715 ft 425 kts 146°
2026-05-05 11:28 48.33385 9.36945 36846 ft 426 kts 146°
2026-05-05 11:29 48.31046 9.39682 36852 ft 427 kts 146°
2026-05-05 11:29 48.26358 9.45152 36864 ft 427 kts 146°
2026-05-05 11:30 48.21698 9.50716 36862 ft 430 kts 144°
2026-05-05 11:30 48.17087 9.56449 36864 ft 431 kts 143°
2026-05-05 11:31 48.12471 9.62186 36865 ft 431 kts 144°
2026-05-05 11:31 48.07840 9.67880 36867 ft 431 kts 144°
2026-05-05 11:32 48.03193 9.73564 36873 ft 431 kts 144°
2026-05-05 11:32 47.98546 9.79227 36867 ft 432 kts 144°
2026-05-05 11:33 47.93883 9.84893 36851 ft 432 kts 144°
2026-05-05 11:33 47.89217 9.90553 36852 ft 433 kts 144°
2026-05-05 11:34 47.84546 9.96204 36863 ft 433 kts 144°
2026-05-05 11:34 47.79871 10.01852 36857 ft 432 kts 144°
2026-05-05 11:35 47.75225 10.07465 36851 ft 433 kts 145°
2026-05-05 11:35 47.70544 10.13094 36827 ft 433 kts 145°
2026-05-05 11:36 47.65847 10.18722 36841 ft 434 kts 145°
2026-05-05 11:36 47.61139 10.24344 36847 ft 435 kts 145°
2026-05-05 11:37 47.56424 10.29965 36851 ft 435 kts 146°
2026-05-05 11:37 47.51432 10.34943 36844 ft 433 kts 150°
2026-05-05 11:38 47.46389 10.39834 36835 ft 434 kts 150°
2026-05-05 11:38 47.41327 10.44739 36836 ft 436 kts 150°
2026-05-05 11:39 47.36257 10.49651 36846 ft 437 kts 150°
2026-05-05 11:39 47.31167 10.54562 36856 ft 437 kts 150°
2026-05-05 11:40 47.26102 10.59501 36864 ft 437 kts 149°
2026-05-05 11:40 47.21147 10.64715 36878 ft 438 kts 148°
2026-05-05 11:41 47.16225 10.70008 36876 ft 438 kts 148°
2026-05-05 11:41 47.11274 10.75232 36895 ft 438 kts 148°
2026-05-05 11:42 47.06312 10.80395 36865 ft 438 kts 149°
2026-05-05 11:42 47.01333 10.85570 36891 ft 439 kts 148°
2026-05-05 11:43 46.96341 10.90750 36910 ft 440 kts 149°
2026-05-05 11:43 46.91346 10.95917 36932 ft 440 kts 148°
2026-05-05 11:44 46.86347 11.01091 36941 ft 440 kts 148°
2026-05-05 11:44 46.81415 11.06324 36932 ft 445 kts 143°
2026-05-05 11:45 46.77038 11.12784 36942 ft 448 kts 137°
2026-05-05 11:45 46.72699 11.19350 36970 ft 450 kts 138°
2026-05-05 11:46 46.68343 11.25908 36980 ft 451 kts 138°
2026-05-05 11:46 46.63968 11.32474 36990 ft 450 kts 138°
2026-05-05 11:47 46.59606 11.39008 36976 ft 451 kts 138°
2026-05-05 11:47 46.55234 11.45559 36974 ft 451 kts 138°
2026-05-05 11:48 46.48652 11.55373 36976 ft 453 kts 138°
2026-05-05 11:48 46.44270 11.61880 36983 ft 453 kts 138°
2026-05-05 11:49 46.39864 11.68416 36979 ft 454 kts 138°
2026-05-05 11:49 46.35440 11.74965 36975 ft 454 kts 138°
2026-05-05 11:50 46.31008 11.81503 36984 ft 456 kts 138°
2026-05-05 11:50 46.26575 11.88012 36988 ft 457 kts 138°
2026-05-05 11:51 46.22114 11.94564 36989 ft 458 kts 138°
2026-05-05 11:51 46.17645 12.01120 37009 ft 459 kts 138°
2026-05-05 11:52 46.13162 12.07663 37002 ft 459 kts 138°
2026-05-05 11:52 46.08684 12.14199 37003 ft 458 kts 138°
2026-05-05 11:53 46.04202 12.20707 37016 ft 458 kts 138°
2026-05-05 11:53 45.99707 12.27229 37017 ft 458 kts 138°
2026-05-05 11:54 45.95211 12.33739 37008 ft 459 kts 138°
2026-05-05 11:54 45.91468 12.39144 37032 ft 459 kts 138°
2026-05-05 11:55 45.86969 12.45617 37029 ft 458 kts 138°
2026-05-05 11:55 45.82456 12.52100 37021 ft 459 kts 138°
2026-05-05 11:56 45.77903 12.58622 37028 ft 461 kts 138°
2026-05-05 11:56 45.73366 12.65099 37017 ft 460 kts 138°
2026-05-05 11:57 45.68868 12.71515 37034 ft 459 kts 138°
2026-05-05 11:57 45.64338 12.77971 37033 ft 459 kts 139°
2026-05-05 11:58 45.59807 12.84408 37021 ft 460 kts 139°
2026-05-05 11:58 45.55256 12.90848 37025 ft 461 kts 139°
2026-05-05 11:59 45.50697 12.97276 37022 ft 460 kts 139°
2026-05-05 11:59 45.46146 13.03691 37037 ft 460 kts 139°
2026-05-05 12:00 45.41596 13.10089 37046 ft 460 kts 139°
2026-05-05 12:00 45.37037 13.16483 37020 ft 460 kts 139°
2026-05-05 12:01 45.32472 13.22876 37024 ft 461 kts 139°
2026-05-05 12:01 45.28309 13.29782 37033 ft 464 kts 131°
2026-05-05 12:02 45.24280 13.36930 37038 ft 464 kts 132°
2026-05-05 12:02 45.20231 13.44067 37045 ft 464 kts 131°
2026-05-05 12:03 45.16187 13.51204 37032 ft 464 kts 131°
2026-05-05 12:03 45.12130 13.58349 37018 ft 465 kts 131°
2026-05-05 12:04 45.08067 13.65481 37037 ft 466 kts 132°
2026-05-05 12:04 45.03991 13.72618 37039 ft 467 kts 132°
2026-05-05 12:05 44.99910 13.79744 37052 ft 466 kts 132°
2026-05-05 12:05 44.95822 13.86860 37055 ft 466 kts 132°
2026-05-05 12:06 44.91764 13.93912 37059 ft 466 kts 132°
2026-05-05 12:06 44.87673 14.01011 37057 ft 466 kts 132°
2026-05-05 12:07 44.83573 14.08097 37054 ft 467 kts 132°
2026-05-05 12:07 44.79464 14.15182 37060 ft 467 kts 132°
2026-05-05 12:08 44.75341 14.22272 37063 ft 467 kts 132°
2026-05-05 12:08 44.71229 14.29336 37070 ft 466 kts 132°
2026-05-05 12:09 44.67118 14.36377 37077 ft 466 kts 132°
2026-05-05 12:09 44.63004 14.43400 37059 ft 466 kts 132°
2026-05-05 12:10 44.58875 14.50421 37062 ft 466 kts 132°
2026-05-05 12:10 44.54739 14.57439 37067 ft 466 kts 132°
2026-05-05 12:11 44.50608 14.64447 37070 ft 466 kts 132°
2026-05-05 12:11 44.46482 14.71445 37073 ft 466 kts 132°
2026-05-05 12:12 44.42340 14.78431 37075 ft 466 kts 133°
2026-05-05 12:12 44.38192 14.85400 37050 ft 467 kts 133°
2026-05-05 12:13 44.34027 14.92382 37051 ft 468 kts 133°
2026-05-05 12:13 44.29876 14.99328 37050 ft 469 kts 133°
2026-05-05 12:14 44.25689 15.06320 37066 ft 469 kts 133°
2026-05-05 12:14 44.21514 15.13296 37088 ft 468 kts 133°
2026-05-05 12:15 44.17333 15.20247 37097 ft 468 kts 133°
2026-05-05 12:15 44.13145 15.27186 37075 ft 468 kts 133°
2026-05-05 12:16 44.08943 15.34142 37078 ft 469 kts 133°
2026-05-05 12:16 44.04743 15.41085 37082 ft 469 kts 133°
2026-05-05 12:17 44.00531 15.48014 37082 ft 469 kts 133°
2026-05-05 12:17 43.96340 15.54890 37080 ft 468 kts 133°
2026-05-05 12:18 43.92126 15.61798 37081 ft 468 kts 133°
2026-05-05 12:18 43.87911 15.68688 37057 ft 469 kts 133°
2026-05-05 12:19 43.83676 15.75579 37058 ft 470 kts 133°
2026-05-05 12:19 43.79434 15.82476 37063 ft 470 kts 133°
2026-05-05 12:20 43.75189 15.89371 37070 ft 471 kts 133°
2026-05-05 12:20 43.70947 15.96256 37066 ft 470 kts 133°
2026-05-05 12:21 43.66720 16.03088 37073 ft 470 kts 134°
2026-05-05 12:21 43.62459 16.09948 36518 ft 473 kts 134°
2026-05-05 12:22 43.60293 16.13424 35290 ft 477 kts 134°
2026-05-05 12:22 43.58155 16.16856 34484 ft 468 kts 134°
2026-05-05 12:22 43.56023 16.20278 33475 ft 473 kts 134°
2026-05-05 12:22 43.53863 16.23735 32422 ft 478 kts 134°
2026-05-05 12:23 43.51688 16.27209 31454 ft 480 kts 134°
2026-05-05 12:23 43.49569 16.30751 30618 ft 480 kts 129°
2026-05-05 12:23 43.47752 16.34591 29930 ft 473 kts 125°
2026-05-05 12:23 43.46035 16.38354 29269 ft 455 kts 124°
2026-05-05 12:24 43.44349 16.42014 28653 ft 449 kts 125°
2026-05-05 12:24 43.42692 16.45574 28050 ft 445 kts 125°
2026-05-05 12:24 43.41002 16.49180 27403 ft 440 kts 125°
2026-05-05 12:24 43.39369 16.52662 26838 ft 436 kts 124°
2026-05-05 12:25 43.37733 16.56159 26242 ft 433 kts 124°
2026-05-05 12:25 43.36112 16.59629 25655 ft 430 kts 124°
2026-05-05 12:25 43.34500 16.63079 25072 ft 428 kts 124°
2026-05-05 12:25 43.32897 16.66510 24494 ft 425 kts 124°
2026-05-05 12:26 43.31301 16.69923 23925 ft 424 kts 124°
2026-05-05 12:26 43.29711 16.73321 23337 ft 421 kts 124°
2026-05-05 12:26 43.28134 16.76688 22796 ft 417 kts 124°
2026-05-05 12:26 43.26577 16.80013 22314 ft 411 kts 124°
2026-05-05 12:27 43.25036 16.83294 21809 ft 405 kts 125°
2026-05-05 12:27 43.23536 16.86479 21364 ft 400 kts 125°
2026-05-05 12:27 43.22034 16.89663 20910 ft 395 kts 125°
2026-05-05 12:27 43.20550 16.92809 20434 ft 391 kts 125°
2026-05-05 12:28 43.19075 16.95933 19966 ft 388 kts 125°
2026-05-05 12:28 43.17612 16.99024 19479 ft 385 kts 125°
2026-05-05 12:28 43.16158 17.02094 18999 ft 383 kts 125°
2026-05-05 12:28 43.14711 17.05146 18511 ft 381 kts 125°
2026-05-05 12:29 43.13268 17.08179 17954 ft 379 kts 126°
2026-05-05 12:29 43.11817 17.11185 17447 ft 377 kts 126°
2026-05-05 12:29 43.10363 17.14157 16939 ft 374 kts 127°
2026-05-05 12:29 43.08913 17.17100 16458 ft 372 kts 127°
2026-05-05 12:30 43.07466 17.20028 15947 ft 371 kts 127°
2026-05-05 12:30 43.06029 17.22938 15448 ft 368 kts 127°
2026-05-05 12:30 43.04600 17.25836 14947 ft 367 kts 127°
2026-05-05 12:30 43.03176 17.28720 14444 ft 365 kts 127°
2026-05-05 12:31 43.01759 17.31593 13944 ft 364 kts 127°
2026-05-05 12:31 43.00348 17.34451 13387 ft 362 kts 127°
2026-05-05 12:31 42.98949 17.37288 12940 ft 356 kts 127°
2026-05-05 12:31 42.97592 17.40040 12808 ft 342 kts 126°
2026-05-05 12:32 42.96293 17.42677 12685 ft 329 kts 127°
2026-05-05 12:32 42.95036 17.45225 12554 ft 317 kts 128°
2026-05-05 12:32 42.93821 17.47679 12426 ft 306 kts 127°
2026-05-05 12:32 42.92647 17.50048 12321 ft 296 kts 127°
2026-05-05 12:33 42.91512 17.52338 12208 ft 286 kts 127°
2026-05-05 12:33 42.90372 17.54512 12086 ft 278 kts 135°
2026-05-05 12:33 42.89042 17.56405 11772 ft 275 kts 137°
2026-05-05 12:33 42.87720 17.58246 11452 ft 274 kts 137°
2026-05-05 12:34 42.86388 17.60099 11186 ft 272 kts 138°
2026-05-05 12:34 42.85065 17.61940 10926 ft 271 kts 137°
2026-05-05 12:34 42.83743 17.63774 10539 ft 270 kts 137°
2026-05-05 12:34 42.82440 17.65581 10153 ft 265 kts 138°
2026-05-05 12:35 42.81156 17.67361 9706 ft 262 kts 137°
2026-05-05 12:35 42.79888 17.69122 9229 ft 259 kts 137°
2026-05-05 12:35 42.78629 17.70869 8764 ft 257 kts 138°
2026-05-05 12:35 42.77449 17.72689 8307 ft 258 kts 127°
2026-05-05 12:36 42.76575 17.74820 7850 ft 258 kts 121°
2026-05-05 12:36 42.75746 17.76970 7400 ft 255 kts 121°
2026-05-05 12:36 42.74911 17.79113 6970 ft 257 kts 121°
2026-05-05 12:36 42.74067 17.81268 6598 ft 260 kts 121°
2026-05-05 12:37 42.73202 17.83444 6209 ft 261 kts 122°
2026-05-05 12:37 42.72351 17.85615 5832 ft 260 kts 121°
2026-05-05 12:37 42.71508 17.87772 5576 ft 255 kts 121°
2026-05-05 12:37 42.70686 17.89879 5197 ft 247 kts 121°
2026-05-05 12:38 42.69894 17.91903 4823 ft 238 kts 122°
2026-05-05 12:38 42.69133 17.93845 4471 ft 228 kts 121°
2026-05-05 12:38 42.68385 17.95746 4184 ft 229 kts 121°
2026-05-05 12:38 42.67631 17.97670 3889 ft 231 kts 121°
2026-05-05 12:39 42.66890 17.99562 3788 ft 221 kts 121°
2026-05-05 12:39 42.66191 18.01345 3786 ft 207 kts 120°
2026-05-05 12:39 42.65535 18.03013 3791 ft 193 kts 122°
2026-05-05 12:39 42.65130 18.04046 3804 ft 181 kts 121°
2026-05-05 12:40 42.64554 18.05510 3654 ft 171 kts 122°
2026-05-05 12:40 42.64009 18.06893 3475 ft 160 kts 121°
2026-05-05 12:40 42.63503 18.08178 3285 ft 151 kts 121°
2026-05-05 12:40 42.63015 18.09414 3099 ft 145 kts 122°
2026-05-05 12:41 42.62541 18.10617 2897 ft 144 kts 121°
2026-05-05 12:41 42.62068 18.11814 2708 ft 143 kts 120°
2026-05-05 12:41 42.61601 18.12998 2512 ft 141 kts 122°
2026-05-05 12:41 42.61139 18.14170 2333 ft 140 kts 122°
2026-05-05 12:42 42.60681 18.15328 2141 ft 138 kts 121°
2026-05-05 12:42 42.60231 18.16470 1942 ft 137 kts 120°
2026-05-05 12:42 42.59777 18.17619 1765 ft 138 kts 120°
2026-05-05 12:42 42.59330 18.18751 1584 ft 139 kts 121°
2026-05-05 12:43 42.58866 18.19921 1393 ft 142 kts 121°
2026-05-05 12:43 42.58401 18.21097 1192 ft 141 kts 122°
2026-05-05 12:43 42.57940 18.22264 1008 ft 141 kts 120°
2026-05-05 12:43 42.57485 18.23417 801 ft 135 kts 124°
2026-05-05 12:44 42.57044 18.24539 618 ft 136 kts 122°
2026-05-05 12:44 42.56592 18.25649 550 ft 126 kts 116°
2026-05-05 12:44 42.56241 18.26555 534 ft 85 kts 118°
2026-05-05 12:44 42.56043 18.27056 534 ft 31 kts 117°
2026-05-05 12:45 42.56003 18.27164 533 ft 9 kts 116°
2026-05-05 12:45 42.55976 18.27231 533 ft 7 kts 120°
2026-05-05 12:45 42.55938 18.27300 532 ft 11 kts 139°
2026-05-05 12:45 42.55865 18.27331 532 ft 10 kts 172°
2026-05-05 12:46 42.55832 18.27337 533 ft 0 kts 172°
2026-05-05 12:47 42.55822 18.27339 533 ft 3 kts 172°
2026-05-05 12:47 42.55786 18.27334 534 ft 7 kts 206°
2026-05-05 12:47 42.55780 18.27255 534 ft 11 kts 291°